{"data":{"norad_id":56512,"intl_designator":"2023-065K","name":"STARLINK-5349","alt_names":[],"object_type":"PAYLOAD","status":"ACTIVE","operator":null,"country":"US","launch_date":"2023-05-14","launch_site_code":"AFETR","launch_vehicle":null,"mission":null,"orbit_class":"UNKNOWN","rcs_meters":null,"size_class":null,"mass_kg":null,"dimensions":null,"purposes":["comms"],"wikipedia_slug":null,"has_3d_model":false,"image_url":null,"decayed_at":null,"tle_current":{"epoch":"2026-05-24T23:58:58.295712Z","epoch_age_seconds":78272,"freshness":"FRESH","line1":"1 56512U 23065K   26144.99928583  .00002423  00000+0  97536-4 0  9999","line2":"2 56512  43.0033 141.2297 0001232 271.7674  88.3037 15.27587343168270","mean_motion":15.27587343,"eccentricity":0.0001232,"inclination_deg":43.0033,"raan_deg":141.2297,"arg_perigee_deg":271.7674,"mean_anomaly_deg":88.3037,"bstar":9.7536e-5,"rev_number":16827,"period_min":94.266295580324,"perigee_km":482.18181312593,"apogee_km":483.87240396227,"semimajor_km":6861.1641085441,"source":"CELESTRAK","updated_at":"2026-05-25T13:38:18.105734Z"}}}